www.pogodaiklimat.ru
ПОГОДА в Рединге
Время
и дата
17:54 23.02
18:54 23.02
19:54 23.02
20:54 23.02
21:54 23.02
22:54 23.02
23:54 23.02
00:54 24.02
01:54 24.02
02:54 24.02
03:54 24.02
04:04 24.02
04:54 24.02
05:54 24.02
06:54 24.02
07:54 24.02
08:54 24.02
09:54 24.02
10:01 24.02
10:54 24.02
11:54 24.02
12:54 24.02
13:54 24.02
14:54 24.02
15:54 24.02
16:54 24.02
17:54 24.02
18:54 24.02
19:54 24.02
20:54 24.02
21:54 24.02
22:54 24.02
23:54 24.02
00:54 25.02
01:54 25.02
02:54 25.02
03:54 25.02
04:54 25.02
05:54 25.02
06:54 25.02
07:54 25.02
08:54 25.02
09:54 25.02
10:54 25.02
11:54 25.02
12:54 25.02
13:54 25.02
14:54 25.02
Ветер
(напр.,м/с)
Видим. Явления Облачность Т
(С)
Тd
(С)
f
(%)
Тe
(С)
Тes
(С)
Комфортность P
(гПа)
Po
(гПа)
Тmin
(С)
Tmax
(С)
R
(мм)
R24
(мм)
S
(см)
СЗ 3 13 км ясно +6.7 +2.2 73 +4 +4 999.3 986.2
СЗ 3 14 км ясно +6.1 +2.2 76 +3 +3 999.6 986.5 +6.1 +9.4
З 2 13 км ясно +6.1 +2.2 76 +4 +4 999.8 986.8
штиль 0 11 км ясно +4.4 +1.7 83 +3 +3 1000.0 986.8
штиль 0 8 км дымка ясно +2.8 +1.1 89 +2 +2 1000.0 986.8
штиль 0 5 км дымка 10/0 2100 m
[Ac]
+2.2 +1.1 92 +1 +1 1000.1 987.2
штиль 0 8 км дымка 8/8 1950 m
[Ac]
+2.2 +0.6 89 +1 +1 1000.0 986.8
штиль 0 8 км дымка 10/0 2250 m
[Ac]
+2.8 +0.6 85 +2 +2 1000.1 987.2 +2.2 +6.1
штиль 0 6 км дымка 8/8 1800 м +2.2 +0.6 89 +1 +1 1000.7 987.5
СЗ 2 8 км дымка 10/0 2100 m
[Ac]
+2.8 +1.1 89 0 0 1000.9 987.8
СЗ 3 11 км слабый дождь 10/10 870 m
[Ns]
+5.0 +1.1 76 +2 +2 1001.6 988.5 0.3
С 3 13 км слабый дождь 10/10 1140 m
[Ns]
+5.0 +1.1 76 +2 +2 988.5
СЗ 3 14 км 10/8 1290 m
[Ac]
+5.0 +1.1 76 +2 +2 1002.1 988.8
С 4 14 км 10/0 3000 m
[Ac]
+4.4 +0.6 76 0 0 1002.7 989.5
С 5 16 км 10/0 2700 m
[Ac]
+4.4 -1.1 67 0 0 1003.7 990.5 +1.7 +5.0 0.3 0.3
С 4 16 км 8/8 1350 м +3.9 -1.1 70 0 0 1004.9 991.8
С 7 16 км 8/8 930 м +3.9 -2.2 64 -2 -2 1006.0 992.8
С 8 16 км 10/10 840 м +3.3 -2.8 64 -3 -3 1007.0 993.8
С 7 16 км 8/8 900 м +3.3 -3.3 62 -2 -2 993.8
С 5 16 км 8/8 900 м +3.3 -4.4 57 -1 -1 1008.1 994.9
СЗ 5 16 км 5/5 1080 м +3.3 -6.7 48 -1 +1 1008.5 995.2
С 7 16 км 2/2 1050 м +3.9 -8.3 41 -1 +1 1008.4 995.2 +2.8 +5.0
С 6 16 км ясно +4.4 -10.6 33 0 +4 1008.5 995.2
С 7
{9}
16 км ясно +4.4 -10.0 34 0 +2 1008.9 995.5
С 6
{9}
16 км ясно +3.9 -11.1 33 -1 +1 1009.8 996.5
С 5
{9}
16 км ясно +2.8 -12.2 32 -2 -1 1011.1 997.9
С 5 16 км ясно +1.1 -12.2 36 -4 -4 1012.8 999.5
СЗ 5 16 км ясно 0.0 -11.7 41 -5 -5 1014.2 1000.9 +4.4
С 2 16 км ясно -0.6 -12.8 39 -3 -3 1015.5 1002.2
С 3 16 км ясно -1.1 -12.8 41 -5 -5 1016.2 1002.9
С 2 16 км ясно -2.8 -12.2 48 -6 -6 1017.0 1003.5
С 3 16 км ясно -2.2 -12.8 44 -6 -6 1017.4 1003.9
С 3 16 км ясно -3.9 -12.8 50 -9 -9 1017.8 1004.2
С 4 16 км ясно -3.3 -12.8 48 -9 -9 1018.5 1004.9 -3.9
С 2 16 км ясно -3.9 -12.8 50 -7 -7 1019.0 1005.6
СЗ 4 16 км ясно -4.4 -12.8 52 -10 -10 1019.4 1005.9
СЗ 2 16 км ясно -5.0 -13.3 52 -9 -9 1020.0 1006.6
С 3 16 км ясно -5.6 -12.8 57 -11 -11 1020.8 1007.2
штиль 0 16 км ясно -5.6 -12.8 57 -6 -6 1021.1 1007.6
штиль 0 16 км ясно -5.6 -11.7 62 -6 -6 1021.9 1008.2 -6.1 -3.3
штиль 0 16 км ясно -4.4 -11.1 59 -5 -5 1022.7 1009.2
В 2 16 км ясно -2.8 -12.8 46 -6 -5 1023.1 1009.6
штиль 0 16 км ясно -1.1 -12.8 41 -1 +4 1022.9 1009.2
нст 2 16 км ясно +0.6 -12.8 36 -2 +5 1022.3 1008.6
СЗ 5 16 км ясно +2.8 -11.1 35 -2 +3 1021.8 1008.2
ЮЗ 4 16 км ясно +4.4 -9.4 36 +1 +7 1020.9 1007.2 -6.1 +4.4
ЮЗ 3 16 км ясно +5.0 -9.4 34 +2 +10 опасность
простуды
1019.8 1006.2
ЮЗ 5 16 км ясно +6.1 -8.3 35 +3 +6 1019.5 1005.9
Местоположение метеостанции Reading Regional Airport: широта 40.3733 долгота -75.9594 высота над уровнем моря 105 м.
В архиве по умолчанию представлена погода в Рединге за последние 1-2 суток. Обновление информации о фактической погоде в базе происходит ежечасно! Архивные данные за месяц целиком и за предыдущие месяцы Вы можете получить, выбрав интересующий диапазон дат из раскрывающегося списка и нажав кнопку "Ввод!".
Внимание! Архив погоды МЕТАР в базе сайта по станциям, не включенным в климатический монитор, хранится не более 60 дней. Нет смысла пытаться выбрать более раннюю дату.
*Определитесь, кто Вы:
Внимание! Время в таблицах - местное (без учета летнего времени). Для получения всемирного времени необходимо вычесть поправку, которая равна -5 ч.
Смотрите также архив погоды в соседних городах и на ближайших метеорологических станциях:
Партнеры нашего сайта:      
Пояснения к столбцам:
  • Ветер - указаны скорость ветра в м/с - средняя за 10 мин, порывы в срок и между сроками (в фигурных скобках) и направление, откуда дует ветер: С - северный,
  • СВ - северо-восточный, В - восточный, ЮВ - юго-восточный, Ю - южный, ЮЗ - юго-западный, З - западный, СЗ - северо-западный.
  • Видимость - горизонтальная дальность видимости в метрах или километрах. При видимости от 1 до 10 км при отсутствии осадков обычно наблюдается дымка, при ухудшении видимости до 1 км и менее - туман. В сухую погоду видимость может ухудшаться дымом, пылью или мглою.
  • Явления - указаны атмосферные явления, наблюдавшиеся в срок или в последний час перед сроком; фигурными скобками обозначены явления, наблюдавшиеся между сроками (за 1-3 часа до срока); квадратными скобками обозначены град или гололедные отложения с указанием их диаметра в мм.
  • Облачность - указаны через наклонную черту общая и нижняя облачность в баллах и высота нижней границы облаков в метрах; квадратными скобками обозначены формы облаков: Ci - перистые, Cs - перисто-слоистые, Cc - перисто-кучевые, Ac - высококучевые, As - высокослоистые, Sc - слоисто-кучевые, Ns - слоисто-дождевые, Cu - кучевые, Cb - кучево-дождевые. Подробнее классификацию облаков см. в Атласе облаков (PDF).
  • T - Температура воздуха - температура, измеренная на высоте 2 м над землей.
  • Td - Температура точки росы - температура, при понижении до которой содержащийся в воздухе водяной пар достигнет насыщения.
  • f - Относительная влажность воздуха - влажноcть воздуха, измеренная на высоте 2 м над землей.
  • Te - Эффективная температура - температура, которую ощущает одетый по сезону человек в тени. Характеристика душности погоды. При расчете учитывается влияние влажности воздуха и скорости ветра на теплоощущения человека.
  • Tes - Эффективная температура на солнце - температура, которую ощущает человек, с поправкой на солнечный нагрев. Характеристика знойности погоды. Зависит от высоты солнца над горизонтом, облачности и скорости ветра. Ночью, в пасмурную погоду, а также при ветре 12 м/с и более поправка равна нулю.
  • P - Атмосферное давление - приведенное к уровню моря атмосферное давление.
  • Po - Атмосферное давление - измеренное на уровне метеостанции атмосферное давление.
  • Tmin - Минимальная температура - минимум температуры воздуха на высоте 2 м над землей.
  • Tmax - Максимальная температура - максимум температуры воздуха на высоте 2 м над землей.
  • R - Количество осадков - Количество выпавших осадков за период времени, мм. При наведении курсора мыши на число - период времени, за который выпало указанное количество осадков.
  • R24 - Количество осадков - Количество выпавших осадков за 24 часа, мм.
  • S - Снежный покров - Высота снежного покрова, см. При наведении курсора мыши на число - состояние снежного покрова и степень покрытия местности в баллах.